GFSNIL_prec_precacc12_093.txt.gz
Total_Precipitation_Accumulation
0.00 0.01 0.02 0.02 0.18 0.55 0.63 0.55 0.42 0.57 0.56 0.50 0.36 0.20 0.09 0.07 0.04 0.03 0.02 0.01 0.03 0.03
0.00 0.01 0.01 0.00 0.03 0.31 0.51 0.55 0.50 0.55 0.52 0.49 0.47 0.27 0.09 0.03 0.03 0.03 0.04 0.03 0.04 0.04
0.00 0.00 0.01 0.01 0.01 0.09 0.30 0.43 0.42 0.50 0.43 0.40 0.35 0.27 0.12 0.04 0.04 0.03 0.04 0.04 0.05 0.05
0.00 0.00 0.00 0.01 0.00 0.02 0.11 0.34 0.27 0.43 0.45 0.31 0.24 0.18 0.14 0.05 0.03 0.03 0.04 0.03 0.05 0.06
0.00 0.00 0.00 0.00 0.00 0.00 0.02 0.13 0.11 0.21 0.33 0.25 0.25 0.17 0.09 0.06 0.04 0.04 0.04 0.04 0.02 0.03
0.00 0.00 0.00 0.00 0.01 0.01 0.01 0.03 0.04 0.08 0.09 0.09 0.10 0.18 0.16 0.10 0.05 0.03 0.02 0.03 0.03 0.02
0.00 0.01 0.01 0.01 0.01 0.01 0.01 0.01 0.02 0.02 0.03 0.05 0.09 0.05 0.08 0.10 0.06 0.02 0.01 0.01 0.01 0.01
0.01 0.01 0.01 0.01 0.00 0.01 0.01 0.01 0.02 0.02 0.02 0.02 0.03 0.03 0.02 0.01 0.01 0.01 0.00 0.00 0.00 0.00
0.02 0.02 0.02 0.02 0.02 0.01 0.00 0.00 0.01 0.01 0.02 0.03 0.01 0.03 0.01 0.01 0.01 0.01 0.01 0.02 0.02 0.02
0.02 0.02 0.02 0.03 0.02 0.03 0.02 0.02 0.00 0.00 0.00 0.01 0.01 0.03 0.01 0.01 0.02 0.04 0.02 0.01 0.01 0.01
0.04 0.04 0.04 0.05 0.05 0.06 0.04 0.05 0.04 0.04 0.03 0.03 0.06 0.06 0.02 0.01 0.01 0.02 0.02 0.03 0.03 0.02
0.02 0.03 0.02 0.02 0.04 0.04 0.06 0.07 0.07 0.08 0.09 0.09 0.10 0.15 0.04 0.04 0.02 0.05 0.08 0.11 0.16 0.14
0.04 0.04 0.04 0.04 0.03 0.04 0.04 0.05 0.07 0.09 0.09 0.15 0.08 0.16 0.07 0.06 0.06 0.18 0.28 0.30 0.27 0.33
0.06 0.06 0.08 0.09 0.07 0.06 0.06 0.05 0.05 0.06 0.07 0.06 0.08 0.10 0.09 0.06 0.05 0.13 0.22 0.24 0.24 0.28

GFSNIL_prec_precacc12_096.txt.gz
Total_Precipitation_Accumulation
0.02 0.01 0.02 0.02 0.16 0.41 0.35 0.40 0.31 0.46 0.51 0.49 0.41 0.27 0.15 0.18 0.14 0.14 0.11 0.07 0.05 0.03
0.01 0.01 0.01 0.01 0.03 0.31 0.45 0.50 0.49 0.58 0.60 0.63 0.56 0.35 0.21 0.14 0.13 0.12 0.12 0.08 0.08 0.04
0.01 0.00 0.01 0.01 0.01 0.09 0.30 0.44 0.44 0.57 0.56 0.58 0.53 0.42 0.26 0.14 0.11 0.09 0.11 0.08 0.07 0.03
0.00 0.01 0.01 0.01 0.01 0.02 0.11 0.35 0.31 0.47 0.56 0.51 0.47 0.40 0.38 0.18 0.10 0.08 0.07 0.04 0.05 0.04
0.00 0.01 0.01 0.00 0.01 0.00 0.02 0.14 0.16 0.27 0.45 0.43 0.51 0.45 0.38 0.31 0.13 0.07 0.06 0.05 0.03 0.03
0.01 0.01 0.01 0.01 0.01 0.01 0.01 0.03 0.05 0.14 0.20 0.24 0.30 0.44 0.42 0.31 0.19 0.11 0.09 0.08 0.07 0.04
0.01 0.01 0.01 0.01 0.01 0.01 0.01 0.01 0.03 0.04 0.09 0.14 0.19 0.19 0.23 0.25 0.20 0.12 0.06 0.05 0.04 0.03
0.01 0.02 0.03 0.02 0.02 0.02 0.02 0.01 0.02 0.03 0.03 0.06 0.09 0.12 0.06 0.06 0.09 0.12 0.09 0.05 0.05 0.01
0.03 0.03 0.04 0.03 0.02 0.02 0.02 0.02 0.02 0.03 0.04 0.06 0.04 0.08 0.03 0.06 0.07 0.08 0.11 0.04 0.03 0.03
0.03 0.02 0.02 0.03 0.03 0.02 0.03 0.02 0.01 0.01 0.01 0.01 0.01 0.05 0.03 0.06 0.06 0.07 0.05 0.03 0.02 0.05
0.04 0.03 0.03 0.04 0.05 0.05 0.04 0.03 0.03 0.04 0.05 0.06 0.09 0.09 0.05 0.05 0.03 0.05 0.05 0.05 0.05 0.04
0.03 0.04 0.04 0.04 0.05 0.06 0.08 0.08 0.06 0.06 0.09 0.10 0.10 0.13 0.07 0.04 0.02 0.05 0.08 0.10 0.11 0.10
0.06 0.05 0.05 0.05 0.05 0.05 0.06 0.06 0.07 0.06 0.06 0.12 0.06 0.12 0.07 0.06 0.05 0.14 0.20 0.21 0.19 0.25
0.11 0.10 0.10 0.11 0.08 0.07 0.08 0.08 0.08 0.09 0.08 0.07 0.09 0.11 0.11 0.13 0.13 0.21 0.27 0.31 0.33 0.39

GFSNIL_prec_precacc12_102.txt.gz
Total_Precipitation_Accumulation
0.03 0.02 0.01 0.01 0.00 0.01 0.03 0.06 0.09 0.19 0.31 0.34 0.35 0.32 0.24 0.27 0.25 0.23 0.22 0.16 0.13 0.07
0.05 0.03 0.03 0.02 0.01 0.02 0.07 0.10 0.12 0.25 0.38 0.45 0.48 0.43 0.42 0.35 0.28 0.23 0.25 0.20 0.20 0.13
0.08 0.05 0.04 0.03 0.04 0.03 0.08 0.14 0.10 0.26 0.41 0.50 0.58 0.58 0.52 0.48 0.42 0.34 0.31 0.24 0.24 0.22
0.06 0.04 0.07 0.06 0.04 0.03 0.04 0.15 0.11 0.18 0.40 0.48 0.55 0.65 0.74 0.59 0.47 0.45 0.38 0.31 0.28 0.20
0.10 0.06 0.07 0.09 0.05 0.02 0.01 0.11 0.12 0.16 0.34 0.36 0.48 0.53 0.68 0.71 0.53 0.39 0.41 0.35 0.26 0.22
0.15 0.09 0.13 0.12 0.05 0.01 0.00 0.03 0.04 0.11 0.18 0.22 0.36 0.56 0.62 0.69 0.53 0.41 0.32 0.32 0.27 0.22
0.14 0.12 0.08 0.08 0.02 0.01 0.01 0.01 0.02 0.03 0.11 0.18 0.27 0.49 0.65 0.65 0.68 0.50 0.35 0.33 0.34 0.31
0.06 0.06 0.04 0.03 0.02 0.02 0.02 0.01 0.02 0.02 0.03 0.12 0.24 0.37 0.46 0.51 0.57 0.52 0.44 0.35 0.37 0.32
0.07 0.05 0.04 0.04 0.02 0.02 0.03 0.03 0.03 0.06 0.07 0.08 0.11 0.30 0.28 0.44 0.58 0.53 0.48 0.42 0.37 0.43
0.07 0.06 0.04 0.03 0.03 0.04 0.10 0.06 0.05 0.06 0.06 0.04 0.04 0.22 0.19 0.30 0.39 0.70 0.53 0.49 0.43 0.42
0.10 0.07 0.09 0.06 0.05 0.05 0.08 0.10 0.10 0.10 0.10 0.11 0.12 0.13 0.16 0.30 0.20 0.29 0.35 0.32 0.34 0.26
0.16 0.12 0.10 0.10 0.07 0.08 0.08 0.07 0.08 0.11 0.11 0.11 0.10 0.14 0.12 0.13 0.06 0.15 0.23 0.21 0.26 0.30
0.23 0.18 0.14 0.11 0.10 0.10 0.11 0.10 0.08 0.07 0.06 0.12 0.06 0.14 0.13 0.13 0.05 0.11 0.15 0.16 0.21 0.37
0.36 0.33 0.24 0.20 0.17 0.15 0.13 0.13 0.13 0.14 0.11 0.09 0.11 0.15 0.19 0.26 0.22 0.30 0.30 0.31 0.33 0.41

GFSNIL_prec_precacc12_105.txt.gz
Total_Precipitation_Accumulation
0.06 0.06 0.03 0.02 0.01 0.00 0.01 0.02 0.00 0.05 0.14 0.15 0.16 0.22 0.20 0.24 0.24 0.23 0.22 0.17 0.12 0.06
0.10 0.08 0.06 0.06 0.02 0.01 0.02 0.03 0.03 0.08 0.16 0.24 0.20 0.27 0.38 0.34 0.28 0.24 0.25 0.22 0.21 0.14
0.15 0.12 0.10 0.07 0.06 0.03 0.02 0.02 0.03 0.10 0.18 0.27 0.36 0.38 0.44 0.48 0.42 0.37 0.36 0.28 0.26 0.26
0.14 0.13 0.15 0.13 0.12 0.04 0.01 0.02 0.05 0.06 0.16 0.32 0.40 0.53 0.65 0.57 0.47 0.48 0.46 0.42 0.38 0.26
0.17 0.14 0.14 0.16 0.12 0.05 0.01 0.02 0.08 0.07 0.14 0.27 0.42 0.48 0.67 0.71 0.56 0.48 0.55 0.49 0.41 0.37
0.29 0.19 0.21 0.19 0.10 0.05 0.02 0.01 0.03 0.06 0.12 0.18 0.33 0.53 0.59 0.68 0.58 0.54 0.55 0.58 0.48 0.38
0.27 0.22 0.15 0.14 0.05 0.03 0.01 0.00 0.01 0.01 0.08 0.14 0.20 0.46 0.62 0.61 0.70 0.58 0.57 0.61 0.54 0.45
0.16 0.14 0.08 0.05 0.03 0.01 0.00 0.00 0.00 0.01 0.02 0.11 0.22 0.34 0.46 0.58 0.68 0.73 0.64 0.53 0.61 0.50
0.11 0.09 0.08 0.05 0.02 0.02 0.03 0.02 0.02 0.04 0.05 0.05 0.10 0.28 0.31 0.52 0.84 0.83 0.78 0.65 0.54 0.62
0.12 0.08 0.06 0.03 0.03 0.04 0.09 0.05 0.05 0.06 0.06 0.04 0.03 0.21 0.21 0.35 0.54 0.88 0.78 0.80 0.74 0.67
0.16 0.11 0.13 0.10 0.06 0.06 0.09 0.10 0.10 0.10 0.10 0.12 0.14 0.16 0.19 0.33 0.30 0.44 0.61 0.65 0.67 0.63
0.22 0.19 0.15 0.16 0.14 0.14 0.10 0.07 0.08 0.11 0.11 0.11 0.11 0.16 0.15 0.15 0.11 0.25 0.40 0.47 0.55 0.61
0.26 0.31 0.33 0.26 0.17 0.16 0.15 0.11 0.06 0.05 0.05 0.11 0.07 0.17 0.16 0.13 0.04 0.09 0.17 0.27 0.33 0.49
0.38 0.37 0.39 0.44 0.40 0.25 0.19 0.15 0.11 0.10 0.08 0.08 0.12 0.16 0.21 0.28 0.19 0.22 0.22 0.24 0.29 0.40

GFSNIL_prec_precacc12_108.txt.gz
Total_Precipitation_Accumulation
0.04 0.05 0.03 0.03 0.02 0.01 0.03 0.03 0.03 0.02 0.02 0.04 0.07 0.14 0.16 0.14 0.16 0.13 0.14 0.11 0.10 0.07
0.11 0.09 0.07 0.09 0.07 0.07 0.07 0.05 0.02 0.01 0.01 0.04 0.09 0.20 0.30 0.26 0.20 0.16 0.17 0.17 0.18 0.14
0.18 0.19 0.13 0.11 0.09 0.06 0.04 0.02 0.00 0.01 0.02 0.08 0.18 0.26 0.35 0.41 0.35 0.31 0.28 0.23 0.23 0.26
0.17 0.14 0.15 0.13 0.14 0.08 0.04 0.02 0.01 0.02 0.05 0.13 0.18 0.32 0.43 0.45 0.40 0.44 0.42 0.41 0.38 0.28
0.19 0.14 0.14 0.16 0.15 0.11 0.06 0.04 0.04 0.03 0.05 0.10 0.18 0.22 0.39 0.48 0.49 0.48 0.55 0.49 0.44 0.44
0.40 0.27 0.27 0.25 0.19 0.15 0.09 0.06 0.04 0.02 0.02 0.04 0.14 0.28 0.33 0.49 0.46 0.49 0.53 0.58 0.53 0.45
0.38 0.33 0.26 0.27 0.19 0.14 0.08 0.04 0.02 0.01 0.02 0.06 0.11 0.32 0.47 0.46 0.56 0.49 0.53 0.60 0.58 0.56
0.27 0.34 0.29 0.24 0.13 0.09 0.03 0.01 0.00 0.00 0.01 0.08 0.16 0.26 0.42 0.53 0.60 0.61 0.56 0.51 0.61 0.63
0.33 0.19 0.16 0.15 0.07 0.08 0.03 0.01 0.01 0.02 0.03 0.03 0.07 0.23 0.29 0.48 0.78 0.77 0.74 0.73 0.64 0.80
0.54 0.33 0.12 0.04 0.04 0.04 0.09 0.06 0.06 0.06 0.06 0.04 0.03 0.19 0.20 0.32 0.50 0.87 0.84 0.98 0.93 0.81
0.49 0.35 0.21 0.12 0.06 0.06 0.09 0.12 0.12 0.10 0.08 0.09 0.11 0.11 0.16 0.31 0.28 0.41 0.60 0.69 0.78 0.86
0.29 0.33 0.23 0.19 0.16 0.16 0.11 0.08 0.09 0.11 0.11 0.10 0.09 0.13 0.12 0.15 0.12 0.24 0.40 0.51 0.64 0.82
0.24 0.31 0.34 0.31 0.24 0.22 0.19 0.16 0.10 0.07 0.06 0.12 0.08 0.17 0.17 0.16 0.05 0.09 0.16 0.27 0.38 0.58
0.34 0.34 0.39 0.45 0.48 0.45 0.40 0.33 0.26 0.21 0.12 0.09 0.10 0.12 0.17 0.22 0.13 0.13 0.09 0.06 0.09 0.19